Lexington Weather

Lexington, Massachusetts, USA

74°F
8/7/2020 11:53am 
  • Lexington Conditions: Clear
  • Temperature: 74.3°F / 23.5°CWarmer 2.9°F than last hour.
  • Dew Point: 63.9°FIncreased 0.8°Fsince last hour.
  • Relative Humidity: 70%Decreased 5.0% since last hour.
  • Wind: Calm, 10-min avg: Calm, gust: 2 mph
  • Barometer: 30.13 inFalling 0.02  inHg/hr Falling Slowly
  • Visibility: 10 miles
  • Rain Today: 0.00 in
  •   

Regional Weather Roundup
for Boston / Norton, MA

        
000
ASUS41 KBOX 010005
RWRBOX

REGIONAL WEATHER ROUNDUP
NATIONAL WEATHER SERVICE BOSTON/NORTON MA
800 PM EDT FRI JUL 31 2020

NOTE:  "FAIR" INDICATES FEW OR NO CLOUDS BELOW 12,000 FEET WITH NO 
SIGNIFICANT WEATHER AND/OR OBSTRUCTIONS TO VISIBILITY.

MAZALL-010100-
EASTERN MASSACHUSETTS
  
CITY           SKY/WX    TMP DP  RH WIND       PRES   REMARKS
BOSTON         PTCLDY    71  66  84 E8        29.82R                  
6HR MIN TEMP:  71; 6HR MAX TEMP:  77;                                

BEVERLY        CLEAR     73  66  78 SE5       29.82R                  
LAWRENCE       CLEAR     77  65  66 VRB3      29.84R                  
BEDFORD        PTCLDY    78  63  59 E7        29.81R                  
BLUE HILL      NOT AVBL                                               
NORWOOD        CLEAR     77  60  55 E3        29.81R                  
MARSHFIELD     CLEAR     73  70  88 CALM      29.82R                  
PLYMOUTH       CLEAR     72  64  76 E5        29.83R                  
TAUNTON        CLEAR     73  65  75 CALM      29.81R                  
NEW BEDFORD    CLEAR     76  70  82 SE5       29.81R                  
$$

MAZALL-010100-
CAPE COD AND THE ISLANDS
  
CITY           SKY/WX    TMP DP  RH WIND       PRES   REMARKS
FALMOUTH       PTCLDY    73  66  78 E5        29.82S                  
HYANNIS        PTCLDY    74  69  85 CALM      29.81R                  
CHATHAM        PTCLDY    74  68  81 E3        29.83S                  
PROVINCETOWN   CLEAR     73  67  81 E3        29.83R                  
NANTUCKET      CLOUDY    71  68  90 S3        29.83R                  
MARTHAS VNYRD  PTCLDY    72  68  87 S3        29.82R                  
$$
 
MAZALL-010100-
CENTRAL AND WESTERN MASSACHUSETTS
  
CITY           SKY/WX    TMP DP  RH WIND       PRES   REMARKS
WORCESTER      CLEAR     77  62  59 NW5       29.86R                  
6HR MIN TEMP:  77; 6HR MAX TEMP:  85;                                

FITCHBURG      CLEAR     81  59  47 N3        29.82R                  
ORANGE         CLEAR     77  63  61 NW5       29.84R                  
SPRINGFIELD    NOT AVBL                                               
WESTFIELD      CLEAR     80  59  48 CALM      29.81R                  
NORTH ADAMS    CLEAR     75  63  66 CALM      29.84R                  
PITTSFIELD     CLEAR     76  61  59 NW5       29.86R                  
$$
 
RIZALL-010100-
RHODE ISLAND
  
CITY           SKY/WX    TMP DP  RH WIND       PRES   REMARKS
PROVIDENCE     PTCLDY    75  70  84 SE8       29.82R                  
6HR MIN TEMP:  75; 6HR MAX TEMP:  85;                                

NEWPORT        CLEAR     73  66  78 S6        29.82R                  
BLOCK ISLAND   CLEAR     71  67  87 CALM      29.83R                  
SMITHFIELD     CLEAR     75  68  78 E6        29.83R                  
WESTERLY       CLEAR     74  66  76 CALM      29.82R                  
$$
 
CTZALL-010100-
CONNECTICUT
  
CITY           SKY/WX    TMP DP  RH WIND       PRES   REMARKS
BRADLEY INTL   PTCLDY    80  55  42 N6        29.80R                  
6HR MIN TEMP:  80; 6HR MAX TEMP:  90;                                

HARTFORD       CLEAR     82  67  60 S5        29.79R                  
BRIDGEPORT     CLEAR     77  70  79 SW5       29.81R                  
DANBURY        CLEAR     77  66  68 S3        29.83R                  
GROTON         CLEAR     72  69  90 S3        29.81R                  
NEW HAVEN      CLEAR     77  71  82 SW3       29.82R                  
CHESTER        NOT AVBL                                               
MERIDEN        CLEAR     78  67  68 S5        29.81R                  
WILLIMANTIC    CLEAR     80  67  64 SW3       29.81R                  
OXFORD         CLEAR     76  68  76 S3        29.85R                  
$$

MEZ002-015-021-024-NHZ003-005-008-011-012-014-VTZ005-008-010100-
NORTHERN NEW ENGLAND
  
CITY           SKY/WX    TMP DP  RH WIND       PRES   REMARKS
PORTLAND ME    PTCLDY    76  62  62 S6        29.82R                  
6HR MIN TEMP:  76; 6HR MAX TEMP:  84;                                

BANGOR ME      PTCLDY    74  61  63 NW5       29.81R                  
CONCORD NH     CLEAR     81  56  42 N5        29.82R                  
MANCHESTER NH  PTCLDY    81  64  56 SE8       29.80R                  
NASHUA NH      PTCLDY    82  66  58 SE9       29.82R                  
PORTSMOUTH NH  PTCLDY    73  61  66 SE7       29.81R                  
JAFFREY NH     CLEAR     74  62  66 CALM      29.87R                  
KEENE NH       CLEAR     75  65  70 CALM      29.84R                  
BURLINGTON VT  PTCLDY    79  56  45 N7        29.86R                  
MT. WASHINGTON NOT AVBL                                               
$$

NYZ052-076-010100-
EASTERN NEW YORK
  
CITY           SKY/WX    TMP DP  RH WIND       PRES   REMARKS
ALBANY         PTCLDY    78  60  53 NE5       29.83R                  
6HR MIN TEMP:  78; 6HR MAX TEMP:  83;                                

NEW YORK CITY  PTCLDY    83  60  45 E3        29.80R                  
6HR MIN TEMP:  77; 6HR MAX TEMP:  84;                                

$$
 
ANZALL-010100-
MARINE OBSERVATIONS
  
STATION/POSITION TIME  TEMP    WIND        PRES    VSBY  WAVE
                       AIR SEA DIR/SP/G                  HT/PER
                 (UTC) (F)     (DEG/KT/KT) (MB)    (MI)  (FT/S)
BOSTON BUOY      2350   73 74  130/  6/  6 1008.3R         2/11
BUZZARDS BAY     2300          150/  4/  4 1010.4R
NANTUCKET SOUND  2340      76  130/  2/  4   N/A
MASS BAY-STELLWA 2304   73     150/  8/  8 1007.2R  1 7/8  2/ 6
ISLE OF SHOALS   2300   74     130/  6/  6 1009.1R
S OF BLOCK IS    2326      75                N/A           3/ 8
$$

......................KEY.........................
  SKY/WX - SKY CONDITION/PRESENT WEATHER
  TMP    - TEMPERATURE IN FAHRENHEIT
  DWPT   - DEWPOINT IN FAHRENHEIT
  RH     - RELATIVE HUMIDITY IN PERCENT
  WIND   - DIRECTION AND SPEED IN MPH
  PRES   - MEAN SEA LEVEL PRESSURE IN INCHES OF HG
  WCI    - WIND CHILL INDEX
  VSB    - VISIBILITY IN MILES
  HX     - HEAT INDEX
  TC     - TEMPERATURE IN CELSIUS
  VRB    - VARIABLE WIND DIRECTION
  N/A    - NOT AVAILABLE
  
      

Other recent Regional Weather Roundups

Fri Aug 7, 11:04am

Fri Aug 7, 10:04am

Fri Aug 7, 9:04am

Fri Aug 7, 8:04am

Fri Aug 7, 7:04am

Fri Aug 7, 6:04am

Fri Aug 7, 5:04am

Fri Aug 7, 4:04am

Fri Aug 7, 3:04am

Fri Aug 7, 2:04am

Fri Aug 7, 1:05am

Fri Aug 7, 12:04am

Thu Aug 6, 11:04pm

Thu Aug 6, 10:04pm

Thu Aug 6, 9:04pm

Thu Aug 6, 8:04pm

Thu Aug 6, 7:04pm

Thu Aug 6, 6:04pm

Thu Aug 6, 5:04pm

Thu Aug 6, 4:05pm

Thu Aug 6, 3:04pm

Thu Aug 6, 2:05pm

Thu Aug 6, 1:04pm

Thu Aug 6, 12:04pm

Thu Aug 6, 11:04am

Thu Aug 6, 10:04am

Thu Aug 6, 9:04am

Thu Aug 6, 8:04am

Thu Aug 6, 7:04am

Thu Aug 6, 6:04am

Thu Aug 6, 5:04am

Thu Aug 6, 4:04am

Thu Aug 6, 3:04am

Thu Aug 6, 2:05am

Thu Aug 6, 1:04am

Thu Aug 6, 12:04am

Wed Aug 5, 11:04pm

Wed Aug 5, 10:04pm

Wed Aug 5, 9:04pm

Wed Aug 5, 8:05pm

Wed Aug 5, 7:04pm

Wed Aug 5, 6:04pm

Wed Aug 5, 5:04pm

Wed Aug 5, 4:05pm

Wed Aug 5, 3:04pm

Wed Aug 5, 2:04pm

Wed Aug 5, 1:04pm

Wed Aug 5, 12:04pm

Wed Aug 5, 11:04am

Wed Aug 5, 10:04am

Wed Aug 5, 9:04am

Wed Aug 5, 8:04am

Wed Aug 5, 7:04am

Wed Aug 5, 6:04am

Wed Aug 5, 5:04am

Wed Aug 5, 4:04am

Wed Aug 5, 3:04am

Wed Aug 5, 2:05am

Wed Aug 5, 1:04am

Wed Aug 5, 12:05am

Tue Aug 4, 11:05pm

Tue Aug 4, 10:05pm

Tue Aug 4, 9:04pm

Tue Aug 4, 8:04pm

Tue Aug 4, 7:05pm

Tue Aug 4, 6:05pm

Tue Aug 4, 5:05pm

Tue Aug 4, 4:05pm

Tue Aug 4, 3:04pm

Tue Aug 4, 2:05pm

Tue Aug 4, 1:04pm

Tue Aug 4, 12:05pm

Tue Aug 4, 11:04am

Tue Aug 4, 10:04am

Tue Aug 4, 9:04am

Tue Aug 4, 8:04am

Tue Aug 4, 7:04am

Tue Aug 4, 6:04am

Tue Aug 4, 5:04am

Tue Aug 4, 4:04am

Tue Aug 4, 3:04am

Tue Aug 4, 2:04am

Tue Aug 4, 1:04am

Tue Aug 4, 12:04am

Mon Aug 3, 11:04pm

Mon Aug 3, 10:04pm

Mon Aug 3, 9:04pm

Mon Aug 3, 8:05pm

Mon Aug 3, 7:04pm

Mon Aug 3, 6:04pm

Mon Aug 3, 5:04pm

Mon Aug 3, 4:05pm

Mon Aug 3, 3:04pm

Mon Aug 3, 2:04pm

Mon Aug 3, 1:04pm

Mon Aug 3, 12:05pm

Mon Aug 3, 11:04am

Mon Aug 3, 10:04am

Mon Aug 3, 9:05am

Mon Aug 3, 8:04am

Mon Aug 3, 7:04am

Mon Aug 3, 6:04am

Mon Aug 3, 5:04am

Mon Aug 3, 4:04am

Mon Aug 3, 3:04am

Mon Aug 3, 2:04am

Mon Aug 3, 1:04am

Mon Aug 3, 12:05am

Sun Aug 2, 11:04pm

Sun Aug 2, 10:04pm

Sun Aug 2, 9:04pm

Sun Aug 2, 8:04pm

Sun Aug 2, 7:04pm

Sun Aug 2, 6:04pm

Sun Aug 2, 5:04pm

Sun Aug 2, 4:05pm

Sun Aug 2, 3:04pm

Sun Aug 2, 2:05pm

Sun Aug 2, 1:04pm

Sun Aug 2, 12:04pm

Sun Aug 2, 11:04am

Sun Aug 2, 10:04am

Sun Aug 2, 9:05am

Sun Aug 2, 8:05am

Sun Aug 2, 7:04am

Sun Aug 2, 6:04am

Sun Aug 2, 5:04am

Sun Aug 2, 4:05am

Sun Aug 2, 3:04am

Sun Aug 2, 2:04am

Sun Aug 2, 1:04am

Sun Aug 2, 12:05am

Sat Aug 1, 11:04pm

Sat Aug 1, 10:04pm

Sat Aug 1, 9:04pm

Sat Aug 1, 8:05pm

Sat Aug 1, 7:04pm

Sat Aug 1, 6:04pm

Sat Aug 1, 5:05pm

Sat Aug 1, 4:05pm

Sat Aug 1, 3:04pm

Sat Aug 1, 2:04pm

Sat Aug 1, 1:04pm

Sat Aug 1, 12:04pm

Sat Aug 1, 11:05am

Sat Aug 1, 10:05am

Sat Aug 1, 9:04am

Sat Aug 1, 8:04am

Sat Aug 1, 7:04am

Sat Aug 1, 6:04am

Sat Aug 1, 5:04am

Sat Aug 1, 4:05am

Sat Aug 1, 3:04am

Sat Aug 1, 2:04am

Sat Aug 1, 1:04am

Sat Aug 1, 12:05am

Fri Jul 31, 11:05pm

Fri Jul 31, 10:04pm

Fri Jul 31, 9:04pm

Fri Jul 31, 7:05pm

Fri Jul 31, 6:04pm

Fri Jul 31, 5:04pm

Fri Jul 31, 4:05pm

Fri Jul 31, 3:04pm

Fri Jul 31, 2:05pm

Fri Jul 31, 1:04pm

Fri Jul 31, 12:04pm

Meta data:

ID: 6176208e-64ff-4385-9c36-bd391d6e6fca
Link: https://api.weather.gov/products/6176208e-64ff-4385-9c36-bd391d6e6fca